Home   Weather   Gävle   Past weeks
Flag for Sweden

Past Weather in Gävle, Sweden — Yesterday and Last 2 Weeks

Now
30 °F

Passing clouds.


Feels Like: 30 °F
Forecast: 31 / 25 °F
Wind: 2 mph from North

Location: Films Kyrkby

Current Time: Feb 26, 2020 at 9:18:32 pm

Latest Report: Feb 26, 2020 at 8:00 pm


Visibility: 31 mi

Pressure: 29.41 "Hg

Humidity: 73%

Dew Point: 22 °F

Location of GävleLocation

Past Weather in Gävle — Graph

°F

Gävle Temperature Yesterday

Maximum temperature yesterday: 37 °F (at 12:00 pm)
Minimum temperature yesterday: 18 °F (at 4:00 am)
Average temperature yesterday: 29 °F

High & Low Weather Summary for the Past Weeks

 TemperatureHumidityPressure
High51 °F (Feb 16, 6:00 pm)98% (Feb 13, 3:00 am)30.02 "Hg (Feb 13, 3:00 am)
Low18 °F (Feb 25, 4:00 am)37% (Feb 23, 3:00 pm)28.67 "Hg (Feb 22, 3:00 pm)
Average36 °F78%29.34 "Hg
* Reported Feb 11 7:00 pm — Feb 26 7:00 pm, Gävle. Weather by CustomWeather, © 2020

Note: Actual official high and low records may vary slightly from our data, if they occured in-between our weather recording intervals... More about our weather records

Gävle Weather History for the Previous 24 Hours

Scroll right to see more
 ConditionsComfort  
Time TempWeatherWind HumidityBarometerVisibility
7:00 pm
Wed, Feb 26
29 °FPassing clouds.2 mph75%29.41 "Hg31 mi
6:00 pm30 °FOvercast.3 mph77%29.41 "Hg31 mi
5:00 pm30 °FOvercast.3 mph77%29.38 "Hg31 mi
4:00 pm31 °FOvercast.3 mph73%29.35 "Hg31 mi
3:00 pm32 °FOvercast.6 mph69%29.35 "Hg31 mi
2:00 pm33 °FPassing clouds.5 mph64%29.35 "Hg31 mi
1:00 pm34 °FScattered clouds.5 mph62%29.32 "Hg31 mi
12:00 pm34 °FSunny.5 mph58%29.32 "Hg28 mi
11:00 am34 °FPassing clouds.5 mph54%29.29 "Hg31 mi
10:00 am33 °FPassing clouds.6 mph56%29.29 "Hg25 mi
9:00 am33 °FSunny.5 mph58%29.26 "Hg28 mi
8:00 am31 °FSunny.5 mph67%29.26 "Hg31 mi
7:00 am30 °FSunny.3 mph68%29.23 "Hg31 mi
6:00 am31 °FClear.3 mph68%29.23 "Hg31 mi
5:00 am30 °FClear.3 mph65%29.23 "Hg31 mi
4:00 am30 °FClear.5 mph67%29.23 "Hg31 mi
3:00 am30 °FClear.3 mph63%29.23 "Hg31 mi
2:00 am30 °FClear.3 mph64%29.23 "Hg31 mi
1:00 am30 °FClear.3 mph61%29.23 "Hg31 mi
12:00 am30 °FClear.3 mph58%29.26 "Hg31 mi
11:00 pm
Tue, Feb 25
29 °FClear.2 mph58%29.26 "Hg31 mi
9:00 pm30 °FClear.2 mph58%29.29 "Hg31 mi
Weather by CustomWeather, © 2020

See weather overview

Advertising